SCP
-0 0 0 0 0 0 0 0 0 0 0 0 0 0 0 0 0 0 0 0 0 0 0 0 0 0 0 0 0 0 0 0 0 0 0 0 0 0
0 0 0 0 0 0 0 0 0 0 0 0 0 0 0 0 0 0 0 0 0 0 0 0 0 0 0 0 0 0 0 0 0 0 0 0 0 0
0 0 0 0 0 0 0 0 0 0 0 0 0 0 0 0 0 0 0 0 0 0 0 0 0 0 0 0 0 0 0 0 0 0 0 0 0 0
0 0 0 0 0 0 0 0 0 0 0 0 0 0 0 0 0 0 0 0 0 0 0 0 0 0 0 0 0 0 0 0 0 0 0 0 0 0
0 0 0 0 0 0 0 0 0 0 0 0 0 0 0 0 0 0 0 0 0 0 0 0 0 0 0 0 0 0 0 0 0 0 0 0 0 0
0 0 0 0 0 0 0 0 0 0 0 0 0 0 0 0 0 0 0 0 0 0 0 0 0 0 0 0 0 0 0 0 0 0 0 0 0 0
0 0 0 0 0 0 0 0 0 0 0 0 0 0 0 0 0 0 0 0 0 0 0 0 0 0 0 0 0 0 0 0 0 0 0 0 0 0
0 0 0 0 0 0 0 0 0 0 0 0 0 0 0 0 0 0 0 0 0 0 0 0 0 0 0 0 0 0 0 0 0 0 0 0 0 0
0 0 0 0 0 0 0 0 0 0 0 0 0 0 0 0 0 0 0 0 0 0 0 0 0 0 0 0 0 0 0 0 0 0 0 0 0 0
0 0 0 0 0 0 0 0 0 0 0 0 0 0 0 0 0 0 0 0 0 0 0 0 0 0 0 0 0 0 0 0 0 0 0 0 0 0
0 0 0 0 0 0 0 0 0 0 0 0 0 0 0 0 0 0 0 0 0 0 0 0 0 0 0 0 0 0 0 0 0 0 0 0 0 0
0 0 0 0 0 0 0 0 0 0 0 0 0 0 0 0 0 0 0 0 0 0 0 0 0 0 0 0 0 0 0 0 0 0 0 0 0 0
0 0 0 0 0 0 0 0 0 0 0 0 0 0 0 0 0 0 0 0 0 0 0 0 0 0 0 0 0 0 0 0 0 0 0 0 0 0
0 0 0 0 0 0 0 0 0 0 0 0 0 0 0 0 0 0 0 0 0 0 0 0 0 0 0 0 0 0 0 0 0 0 0 0 0 0
0 0 0 0 0 0 0 0 0 0 0 0 0 0 0 0 0 0 0 0 0 0 0 0 0 0 0 0 0 0 0 0 0 0 0 0 0 0
0 0 0 0 0 0 0 0 0 0 0 0 0 0 0 0 0 0 0 0 0 0 0 0 0 0 0 0 0 0 0 0 0 0 0 0 0 0
0 0 0 0 0 0 0 0 0 0 0 0 0 0 0 0 0 0 0 0 0 0 0 0 0 0 0 0 0 0 0 0 0 0 0 0 0 0
0 0 0 0 0 0 0 0 0 0 0 0 0 0 0 0 0 0 0 0 0 0 0 0 0 0 0 0 0 0 0 0 0 0 0 0 0 0
0 0 0 0 0 0 0 0 0 0 0 0 0 0 0 0 0 0 0 0 0 0 0 0 0 0 0 0 0 0 0 0 0 0 0 0 0 0
0 0 0 0 0 0 0 0 0 0 0 0 0 0 0 0 0 0 0 0 0 0 0 0 0 0 0 0 0 0 0 0 0 0 0 0 0 0
0 0 0 0 0 0 0 0 0 0 0 0 0 0 0 0 0 0 0 0 0 0 0 0 0 0 0 0 0 0 0 0 0 0 0 0 0 0
0 0 0 0 0 0 0 0 0 0 0 0 0 0 0 0 0 0 0 0 0 0 0 0 0 0 0 0 0 0 0 0 0 0 0 0 0 0
0 0 0 0 0 0 0 0 0 0 0 0 0 0 0 0 0 0 0 0 0 0 0 0 0 0 0 0 0 0 0 0 0 0 0 0 0 0
Wind_Speed
2 2 2 1 1 1 1 1 1 2 3 1 0 0 1 0 3 2 3 8 10 10 10 9 9 9 9 10 10 10 10 11 11 11 11 11 11 11
1 2 2 2 2 1 1 1 1 2 3 2 1 2 2 2 4 3 4 9 9 10 10 9 9 9 9 9 9 9 10 10 11 12 11 12 12 12
2 2 3 2 2 2 2 2 2 2 4 4 2 2 2 3 4 3 4 3 4 9 10 9 9 9 9 9 9 9 10 10 11 12 12 12 12 12
3 3 3 2 3 2 2 3 3 3 4 5 4 3 3 3 3 4 4 4 3 8 9 9 9 9 9 9 9 9 9 10 11 12 12 12 12 13
4 4 3 3 4 3 3 3 3 3 3 4 4 3 3 2 3 4 4 3 5 5 7 7 8 9 9 9 9 9 9 10 11 11 12 12 12 13
4 4 4 4 4 4 4 4 3 3 3 3 4 3 3 3 2 3 4 3 4 4 5 6 8 9 10 10 9 9 9 10 11 11 11 11 12 13
4 4 4 5 6 5 4 3 3 3 3 3 4 3 3 2 2 2 3 4 4 2 2 3 4 3 4 7 8 9 10 10 11 11 12 12 12 13
5 4 4 5 7 9 10 8 6 5 4 4 4 4 4 3 2 2 2 3 4 2 3 5 3 3 3 2 7 10 10 11 11 12 12 13 13 13
4 4 4 4 6 4 7 9 9 11 9 5 5 5 4 3 2 3 3 3 4 3 3 5 3 3 3 4 9 10 10 10 11 12 12 13 13 13
5 5 4 4 4 5 4 4 5 6 7 5 5 5 4 3 2 3 3 3 4 3 2 3 3 3 4 3 8 8 8 10 11 12 12 13 13 14
5 4 5 5 8 8 5 5 5 5 7 9 9 8 8 8 4 1 1 2 4 3 1 2 2 3 4 3 4 7 9 11 12 13 13 14 14 14
4 4 7 7 8 9 5 5 6 5 4 4 5 6 5 6 7 3 3 3 3 3 1 1 2 3 4 3 2 3 5 9 12 13 14 14 14 8
3 3 4 8 9 10 8 5 8 6 3 3 3 3 2 2 3 3 3 3 4 4 2 0 1 1 2 4 4 3 3 4 5 7 11 14 14 11
4 3 4 8 9 10 8 8 10 7 3 3 3 3 3 3 3 3 4 4 4 5 4 2 2 2 3 4 5 4 4 4 4 5 5 10 12 14
4 7 8 9 9 7 9 10 7 4 3 4 4 4 3 3 2 2 2 2 3 3 3 3 4 3 4 5 5 5 6 5 4 4 5 5 6 6
4 6 9 9 7 7 7 6 4 4 4 4 4 3 2 2 2 2 2 2 2 3 3 4 4 5 5 6 6 7 6 5 5 5 7 7 6 5
4 3 3 3 3 3 3 4 3 3 4 3 3 3 3 3 3 2 2 2 3 3 3 2 3 4 6 6 6 7 6 6 6 6 7 8 7 6
5 4 4 4 5 4 4 4 3 4 4 4 4 4 4 3 3 2 3 3 4 4 4 3 2 3 3 5 8 7 6 6 5 6 6 7 9 7
5 4 5 5 5 4 4 4 4 4 4 4 4 4 4 4 3 3 3 3 4 4 4 3 2 2 4 5 4 5 4 5 5 6 5 6 9 9
4 5 5 5 4 4 4 4 4 4 4 4 4 4 4 4 4 4 4 4 4 4 3 3 3 3 4 5 5 5 7 6 5 7 7 7 8 11
5 5 5 5 4 4 4 4 4 4 4 4 4 4 4 4 4 4 4 6 5 4 4 4 4 5 3 2 4 5 5 7 8 7 7 7 8 7
5 5 4 5 4 4 4 4 4 4 5 4 4 4 4 4 4 5 4 4 4 4 4 3 2 2 2 3 6 7 7 7 9 12 12 10 6 5
5 4 4 4 4 4 4 5 5 5 5 4 4 4 4 4 4 4 4 4 3 3 3 3 2 2 3 4 5 6 8 8 7 7 7 10 13 16
Wind_Direction
241 245 245 254 245 251 263 221 235 282 289 261 278 284 317 315 321 317 306 314 319 320 323 328 330 333 334 336 337 338 337 334 331 327 324 325 324 323
232 239 249 251 239 226 235 249 227 231 266 283 276 288 311 330 320 316 301 314 316 317 318 320 323 327 331 334 336 336 335 334 333 329 325 324 323 322
242 233 241 246 246 233 226 233 238 231 258 280 285 294 306 308 316 310 302 300 302 312 315 317 319 324 327 330 331 335 336 336 335 333 329 326 325 324
243 241 242 239 245 242 235 235 237 234 243 270 287 294 288 288 298 304 310 312 304 309 316 317 322 327 328 326 328 331 334 334 333 333 332 330 328 326
233 238 243 236 243 242 238 240 243 249 241 255 274 283 288 296 307 310 310 310 309 311 315 322 324 325 326 324 324 326 329 329 329 329 329 330 330 329
234 233 235 235 242 242 242 240 242 251 254 256 266 277 282 289 298 303 311 314 312 312 315 321 319 323 323 321 323 325 324 323 324 325 323 324 325 325
244 240 235 233 238 241 244 237 237 244 252 256 264 274 276 291 285 286 298 310 307 301 325 314 310 305 309 313 318 319 321 322 323 323 321 321 322 322
246 246 243 240 244 251 254 252 242 239 241 246 257 260 267 268 276 291 301 322 309 320 332 306 299 292 289 284 306 316 319 320 322 322 321 320 321 321
245 246 251 247 246 242 255 260 260 259 253 245 248 250 255 260 273 288 283 280 272 284 313 291 286 285 287 302 311 312 315 321 322 321 321 320 319 320
245 243 244 249 243 237 238 247 250 255 256 251 243 247 247 243 232 250 262 282 280 278 268 278 291 288 298 294 304 306 315 320 322 322 321 321 320 319
252 250 245 244 253 251 241 247 257 258 256 250 250 253 259 265 260 251 271 288 291 287 270 270 296 309 296 284 299 314 319 321 321 322 324 324 322 320
253 253 253 254 259 259 243 239 255 258 253 260 256 260 258 262 265 234 217 242 269 281 274 293 299 334 314 295 296 311 313 313 319 322 323 324 323 321
252 254 253 262 264 265 260 244 252 258 247 240 243 245 239 234 239 226 213 220 233 250 253 281 281 288 272 297 298 287 290 301 311 313 317 319 321 321
249 253 255 265 267 265 263 257 263 267 250 239 241 240 237 235 229 222 221 223 227 237 242 220 235 251 278 289 289 298 302 295 298 301 301 313 316 317
253 260 268 270 272 266 258 260 261 252 238 242 245 242 231 228 218 217 224 233 248 253 248 234 232 246 251 266 280 292 305 301 293 298 304 304 302 305
264 266 273 272 264 258 263 260 243 234 233 240 245 240 226 218 213 207 224 239 265 270 252 240 235 235 253 260 268 278 282 286 300 303 302 297 293 288
270 262 257 255 248 246 245 241 231 233 241 235 235 235 230 227 225 211 218 230 244 264 277 270 254 247 247 253 266 267 274 278 282 296 303 302 296 289
267 255 255 250 248 249 249 245 234 232 235 234 234 232 231 227 228 221 220 232 248 260 267 271 282 291 282 262 238 257 266 273 284 291 294 297 298 296
256 251 252 252 251 249 247 244 243 236 229 231 235 231 228 228 225 227 227 235 246 255 259 255 253 257 282 291 277 234 255 281 291 292 287 286 290 295
240 247 251 250 250 249 246 245 244 236 231 233 232 229 225 226 227 226 226 231 244 254 260 250 240 241 252 269 279 280 270 273 282 288 291 289 284 288
244 245 246 245 246 246 246 245 242 239 236 232 228 225 224 223 226 224 226 238 243 247 254 257 251 264 263 266 279 282 280 272 276 280 289 296 299 298
250 249 246 243 244 243 244 244 243 240 234 231 226 222 219 218 221 221 223 230 237 243 254 261 258 261 249 257 275 287 296 299 295 290 280 270 277 288
250 251 251 248 245 243 242 242 243 240 232 224 220 218 214 216 217 217 221 225 233 242 254 268 271 262 260 261 273 286 293 301 304 307 296 290 287 281